Time,TemperatureF,DewpointF,PressureIn,WindDirection,WindDirectionDegrees,WindSpeedMPH,WindSpeedGustMPH,Humidity,HourlyPrecipIn,Conditions,Clouds,dailyrainin,SoftwareType,DateUTC
2013-04-05 00:00:00,53.1,48.4,30.00,South,180,1.3,1.3,84,0.04,,---,0.00,VWS V14.01,2013-04-05 07:00:00,
2013-04-05 00:05:00,53.1,48.4,30.00,South,180,1.1,1.1,84,0.05,,---,0.01,VWS V14.01,2013-04-05 07:05:00,
2013-04-05 00:10:00,52.7,48.3,30.00,South,180,1.1,1.1,85,0.05,,---,0.01,VWS V14.01,2013-04-05 07:10:00,
2013-04-05 00:15:00,52.4,48.3,30.00,South,180,0.0,0.0,86,0.04,,---,0.01,VWS V14.01,2013-04-05 07:15:00,
2013-04-05 00:20:00,52.2,48.2,30.00,South,180,2.0,2.0,86,0.05,,---,0.02,VWS V14.01,2013-04-05 07:20:00,
2013-04-05 00:25:00,52.4,48.3,30.00,South,180,1.1,1.1,86,0.05,,---,0.02,VWS V14.01,2013-04-05 07:25:00,
2013-04-05 00:30:00,52.4,48.3,30.00,ESE,112,4.0,4.0,86,0.05,,---,0.02,VWS V14.01,2013-04-05 07:30:00,
2013-04-05 00:35:00,52.4,48.0,30.00,South,180,5.8,5.8,85,0.05,,---,0.02,VWS V14.01,2013-04-05 07:35:00,
2013-04-05 00:40:00,52.9,47.9,29.99,South,180,0.4,2.5,83,0.05,,---,0.02,VWS V14.01,2013-04-05 07:40:00,
2013-04-05 00:45:00,52.9,48.2,30.00,South,180,2.2,2.5,84,0.05,,---,0.02,VWS V14.01,2013-04-05 07:45:00,
2013-04-05 00:50:00,52.9,47.2,29.99,South,180,2.5,3.4,81,0.04,,---,0.02,VWS V14.01,2013-04-05 07:50:00,
2013-04-05 00:55:00,53.5,47.8,29.99,South,180,3.8,3.8,81,0.02,,---,0.02,VWS V14.01,2013-04-05 07:55:00,
2013-04-05 01:00:00,53.3,48.0,30.00,South,180,0.4,1.8,82,0.02,,---,0.02,VWS V14.01,2013-04-05 08:00:00,
2013-04-05 01:05:00,52.9,47.2,29.99,South,180,2.5,2.5,81,0.01,,---,0.02,VWS V14.01,2013-04-05 08:05:00,
2013-04-05 01:10:00,53.1,47.8,29.99,South,180,1.8,1.8,82,0.02,,---,0.03,VWS V14.01,2013-04-05 08:10:00,
2013-04-05 01:15:00,52.9,47.6,29.99,South,180,0.4,2.5,82,0.02,,---,0.03,VWS V14.01,2013-04-05 08:15:00,
2013-04-05 01:20:00,52.7,47.7,30.00,South,180,1.8,1.8,83,0.01,,---,0.03,VWS V14.01,2013-04-05 08:20:00,
2013-04-05 01:25:00,52.6,47.9,30.00,South,180,0.9,2.2,84,0.02,,---,0.04,VWS V14.01,2013-04-05 08:25:00,
2013-04-05 01:30:00,52.6,47.9,30.00,South,180,4.0,4.0,84,0.02,,---,0.04,VWS V14.01,2013-04-05 08:30:00,
2013-04-05 01:35:00,52.6,47.3,29.99,South,180,1.8,1.8,82,0.03,,---,0.05,VWS V14.01,2013-04-05 08:35:00,
2013-04-05 01:40:00,52.7,48.0,29.99,South,180,1.8,1.8,84,0.03,,---,0.05,VWS V14.01,2013-04-05 08:40:00,
2013-04-05 01:45:00,52.6,47.9,30.00,South,180,2.2,2.2,84,0.04,,---,0.06,VWS V14.01,2013-04-05 08:45:00,
2013-04-05 01:50:00,52.6,47.9,29.99,South,180,2.2,2.7,84,0.04,,---,0.06,VWS V14.01,2013-04-05 08:50:00,
2013-04-05 01:55:00,52.4,47.7,30.00,South,180,2.7,2.7,84,0.05,,---,0.07,VWS V14.01,2013-04-05 08:55:00,
2013-04-05 02:00:00,52.4,47.7,30.00,South,180,2.5,4.7,84,0.05,,---,0.07,VWS V14.01,2013-04-05 09:00:00,
2013-04-05 02:05:00,52.4,47.7,30.00,South,180,1.3,1.3,84,0.06,,---,0.08,VWS V14.01,2013-04-05 09:05:00,
2013-04-05 02:10:00,52.0,48.0,30.00,South,180,0.4,0.4,86,0.05,,---,0.08,VWS V14.01,2013-04-05 09:10:00,
2013-04-05 02:15:00,52.0,48.0,30.00,South,180,5.1,5.1,86,0.05,,---,0.08,VWS V14.01,2013-04-05 09:15:00,
2013-04-05 02:20:00,52.0,48.0,30.00,South,180,0.9,0.9,86,0.06,,---,0.09,VWS V14.01,2013-04-05 09:20:00,
2013-04-05 02:25:00,51.8,47.4,30.00,SW,225,2.2,2.2,85,0.05,,---,0.09,VWS V14.01,2013-04-05 09:25:00,
2013-04-05 02:30:00,51.8,47.8,30.00,South,180,2.0,2.5,86,0.06,,---,0.10,VWS V14.01,2013-04-05 09:30:00,
2013-04-05 02:35:00,51.8,47.8,30.01,NNW,338,0.2,0.4,86,0.05,,---,0.10,VWS V14.01,2013-04-05 09:35:00,
2013-04-05 02:40:00,51.7,47.7,30.00,NNW,338,3.4,3.4,86,0.06,,---,0.11,VWS V14.01,2013-04-05 09:40:00,
2013-04-05 02:45:00,51.7,47.7,30.01,South,180,2.7,3.8,86,0.05,,---,0.11,VWS V14.01,2013-04-05 09:45:00,
2013-04-05 02:50:00,51.7,47.7,30.01,South,180,0.9,1.8,86,0.05,,---,0.11,VWS V14.01,2013-04-05 09:50:00,
2013-04-05 02:55:00,51.5,47.5,30.01,South,180,0.9,2.7,86,0.07,,---,0.14,VWS V14.01,2013-04-05 09:55:00,
2013-04-05 03:00:00,51.3,47.3,30.02,South,180,6.7,6.9,86,0.08,,---,0.15,VWS V14.01,2013-04-05 10:00:00,
2013-04-05 03:05:00,51.3,47.3,30.01,South,180,0.0,1.6,86,0.10,,---,0.17,VWS V14.01,2013-04-05 10:05:00,
2013-04-05 03:10:00,51.1,47.4,30.01,South,180,1.8,1.8,87,0.10,,---,0.18,VWS V14.01,2013-04-05 10:10:00,
2013-04-05 03:15:00,51.1,47.1,30.01,South,180,0.0,1.1,86,0.12,,---,0.20,VWS V14.01,2013-04-05 10:15:00,
2013-04-05 03:20:00,50.9,47.2,30.02,South,180,0.4,0.4,87,0.13,,---,0.21,VWS V14.01,2013-04-05 10:20:00,
2013-04-05 03:25:00,50.6,46.9,30.02,South,180,0.0,0.0,87,0.13,,---,0.22,VWS V14.01,2013-04-05 10:25:00,
2013-04-05 03:30:00,50.4,47.0,30.02,South,180,1.8,1.8,88,0.15,,---,0.24,VWS V14.01,2013-04-05 10:30:00,
2013-04-05 03:35:00,50.4,47.0,30.02,South,180,2.7,4.0,88,0.15,,---,0.25,VWS V14.01,2013-04-05 10:35:00,
2013-04-05 03:40:00,50.4,47.0,30.02,South,180,0.9,1.1,88,0.17,,---,0.28,VWS V14.01,2013-04-05 10:40:00,
2013-04-05 03:45:00,50.2,46.8,30.02,South,180,0.4,0.4,88,0.19,,---,0.30,VWS V14.01,2013-04-05 10:45:00,
2013-04-05 03:50:00,50.0,46.6,30.02,South,180,0.0,0.0,88,0.21,,---,0.32,VWS V14.01,2013-04-05 10:50:00,
2013-04-05 03:55:00,50.0,46.9,30.02,South,180,1.1,1.1,89,0.19,,---,0.33,VWS V14.01,2013-04-05 10:55:00,
2013-04-05 04:00:00,50.2,47.1,30.02,South,180,2.9,2.9,89,0.20,,---,0.35,VWS V14.01,2013-04-05 11:00:00,
2013-04-05 04:05:00,50.4,47.0,30.02,South,180,7.6,8.1,88,0.20,,---,0.37,VWS V14.01,2013-04-05 11:05:00,
2013-04-05 04:10:00,50.6,47.5,30.03,South,180,1.1,1.1,89,0.20,,---,0.39,VWS V14.01,2013-04-05 11:10:00,
2013-04-05 04:15:00,50.4,47.3,30.03,South,180,0.4,0.4,89,0.20,,---,0.41,VWS V14.01,2013-04-05 11:15:00,
2013-04-05 04:20:00,50.2,47.1,30.03,South,180,0.7,0.7,89,0.21,,---,0.43,VWS V14.01,2013-04-05 11:20:00,
2013-04-05 04:25:00,50.2,47.4,30.03,South,180,0.7,0.7,90,0.21,,---,0.44,VWS V14.01,2013-04-05 11:25:00,
2013-04-05 04:30:00,50.0,47.2,30.03,South,180,0.0,0.0,90,0.21,,---,0.44,VWS V14.01,2013-04-05 11:30:00,
2013-04-05 04:35:00,50.0,46.9,30.03,South,180,2.5,4.9,89,0.22,,---,0.47,VWS V14.01,2013-04-05 11:35:00,
2013-04-05 04:40:00,50.4,47.3,30.03,North,0,1.6,1.6,89,0.20,,---,0.48,VWS V14.01,2013-04-05 11:40:00,
2013-04-05 04:45:00,50.2,47.1,30.03,South,180,1.1,1.1,89,0.19,,---,0.49,VWS V14.01,2013-04-05 11:45:00,
2013-04-05 04:50:00,50.0,47.2,30.03,South,180,0.7,1.1,90,0.17,,---,0.50,VWS V14.01,2013-04-05 11:50:00,
2013-04-05 04:55:00,50.0,47.2,30.03,South,180,0.7,0.7,90,0.17,,---,0.51,VWS V14.01,2013-04-05 11:55:00,
2013-04-05 05:00:00,50.0,47.2,30.03,South,180,0.0,0.0,90,0.15,,---,0.51,VWS V14.01,2013-04-05 12:00:00,
2013-04-05 05:05:00,49.9,47.4,30.03,South,180,0.0,0.0,91,0.15,,---,0.52,VWS V14.01,2013-04-05 12:05:00,
2013-04-05 05:10:00,50.2,47.4,30.04,South,180,1.1,3.4,90,0.14,,---,0.53,VWS V14.01,2013-04-05 12:10:00,
2013-04-05 05:15:00,50.4,47.6,30.04,South,180,0.4,6.9,90,0.13,,---,0.54,VWS V14.01,2013-04-05 12:15:00,
2013-04-05 05:20:00,50.4,47.6,30.04,South,180,0.2,1.1,90,0.12,,---,0.55,VWS V14.01,2013-04-05 12:20:00,
2013-04-05 05:25:00,50.4,47.6,30.04,South,180,1.1,1.1,90,0.12,,---,0.55,VWS V14.01,2013-04-05 12:25:00,
2013-04-05 05:30:00,50.4,47.9,30.04,South,180,2.2,2.2,91,0.11,,---,0.56,VWS V14.01,2013-04-05 12:30:00,
2013-04-05 05:35:00,50.6,47.8,30.04,South,180,1.8,3.6,90,0.09,,---,0.56,VWS V14.01,2013-04-05 12:35:00,
2013-04-05 05:40:00,50.9,48.1,30.04,South,180,2.9,2.9,90,0.10,,---,0.57,VWS V14.01,2013-04-05 12:40:00,
2013-04-05 05:45:00,51.1,48.3,30.04,South,180,3.1,4.7,90,0.09,,---,0.58,VWS V14.01,2013-04-05 12:45:00,
2013-04-05 05:50:00,51.1,48.0,30.05,South,180,5.4,5.4,89,0.08,,---,0.58,VWS V14.01,2013-04-05 12:50:00,
2013-04-05 05:55:00,51.1,48.0,30.04,South,180,1.1,1.1,89,0.07,,---,0.58,VWS V14.01,2013-04-05 12:55:00,
2013-04-05 06:00:00,50.9,48.1,30.05,South,180,4.0,4.0,90,0.08,,---,0.59,VWS V14.01,2013-04-05 13:00:00,
2013-04-05 06:05:00,50.9,48.1,30.05,South,180,4.5,4.5,90,0.07,,---,0.59,VWS V14.01,2013-04-05 13:05:00,
2013-04-05 06:10:00,51.3,48.2,30.05,South,180,6.3,6.3,89,0.06,,---,0.59,VWS V14.01,2013-04-05 13:10:00,
2013-04-05 06:15:00,51.3,48.2,30.05,South,180,2.9,2.9,89,0.05,,---,0.59,VWS V14.01,2013-04-05 13:15:00,
2013-04-05 06:20:00,51.5,48.1,30.06,SW,225,9.8,9.8,88,0.04,,---,0.59,VWS V14.01,2013-04-05 13:20:00,
2013-04-05 06:25:00,51.5,48.1,30.06,West,270,2.5,2.5,88,0.04,,---,0.59,VWS V14.01,2013-04-05 13:25:00,
2013-04-05 06:30:00,51.5,47.8,30.06,South,180,10.5,10.5,87,0.03,,---,0.59,VWS V14.01,2013-04-05 13:30:00,
2013-04-05 06:35:00,51.8,47.8,30.06,South,180,7.2,7.2,86,0.03,,---,0.59,VWS V14.01,2013-04-05 13:35:00,
2013-04-05 06:40:00,51.8,47.8,30.06,South,180,9.6,9.6,86,0.02,,---,0.00,VWS V14.01,2013-04-05 13:40:00,
2013-04-05 06:45:00,51.8,47.8,30.06,South,180,3.6,6.5,86,0.01,,---,0.59,VWS V14.01,2013-04-05 13:45:00,
2013-04-05 06:50:00,52.0,48.0,30.06,South,180,5.4,8.5,86,0.01,,---,0.59,VWS V14.01,2013-04-05 13:50:00,
2013-04-05 06:55:00,51.8,47.8,30.06,WNW,292,5.8,5.8,86,0.01,,---,0.59,VWS V14.01,2013-04-05 13:55:00,
2013-04-05 07:00:00,51.8,47.8,30.06,South,180,5.4,5.4,86,0.00,,---,0.59,VWS V14.01,2013-04-05 14:00:00,
2013-04-05 07:05:00,51.8,48.1,30.06,South,180,4.5,4.5,87,0.00,,---,0.59,VWS V14.01,2013-04-05 14:05:00,
2013-04-05 07:10:00,51.7,48.0,30.06,South,180,6.9,6.9,87,0.00,,---,0.59,VWS V14.01,2013-04-05 14:10:00,
2013-04-05 07:15:00,51.5,47.8,30.07,South,180,5.4,5.4,87,0.00,,---,0.59,VWS V14.01,2013-04-05 14:15:00,
2013-04-05 07:20:00,51.5,48.1,30.07,South,180,7.6,7.6,88,0.01,,---,0.60,VWS V14.01,2013-04-05 14:20:00,
2013-04-05 07:25:00,51.5,47.8,30.07,South,180,4.0,4.0,87,0.01,,---,0.60,VWS V14.01,2013-04-05 14:25:00,
2013-04-05 07:30:00,51.7,48.0,30.07,South,180,2.0,2.0,87,0.01,,---,0.60,VWS V14.01,2013-04-05 14:30:00,
2013-04-05 07:36:00,51.7,48.0,30.07,South,180,12.8,12.8,87,0.01,,---,0.60,VWS V14.01,2013-04-05 14:36:00,
2013-04-05 07:41:00,51.7,48.0,30.07,South,180,3.4,4.7,87,0.01,,---,0.60,VWS V14.01,2013-04-05 14:41:00,
2013-04-05 07:46:00,51.7,48.0,30.08,South,180,1.3,1.3,87,0.01,,---,0.60,VWS V14.01,2013-04-05 14:46:00,
2013-04-05 07:51:00,51.8,48.1,30.08,South,180,3.4,13.4,87,0.01,,---,0.60,VWS V14.01,2013-04-05 14:51:00,
2013-04-05 07:56:00,52.0,48.3,30.08,South,180,4.0,4.0,87,0.01,,---,0.60,VWS V14.01,2013-04-05 14:56:00,
2013-04-05 08:01:00,52.0,48.0,30.08,WSW,248,10.5,10.5,86,0.01,,---,0.60,VWS V14.01,2013-04-05 15:01:00,
2013-04-05 08:06:00,52.2,48.2,30.08,South,180,4.7,4.7,86,0.01,,---,0.60,VWS V14.01,2013-04-05 15:06:00,
2013-04-05 08:11:00,52.2,48.2,30.08,SSW,202,5.8,5.8,86,0.01,,---,0.60,VWS V14.01,2013-04-05 15:11:00,
2013-04-05 08:16:00,52.6,47.9,30.08,South,180,5.4,5.4,84,0.01,,---,0.60,VWS V14.01,2013-04-05 15:16:00,
2013-04-05 08:21:00,52.6,47.9,30.08,South,180,4.5,4.5,84,0.01,,---,0.61,VWS V14.01,2013-04-05 15:21:00,
2013-04-05 08:26:00,52.6,48.2,30.09,South,180,3.8,3.8,85,0.01,,---,0.61,VWS V14.01,2013-04-05 15:26:00,
2013-04-05 08:31:00,52.6,48.2,30.09,South,180,3.8,3.8,85,0.01,,---,0.61,VWS V14.01,2013-04-05 15:31:00,
2013-04-05 08:36:00,52.6,48.2,30.09,South,180,4.0,4.0,85,0.01,,---,0.61,VWS V14.01,2013-04-05 15:36:00,
2013-04-05 08:41:00,52.4,48.3,30.09,South,180,1.3,1.3,86,0.01,,---,0.61,VWS V14.01,2013-04-05 15:41:00,
2013-04-05 08:47:00,52.2,48.2,30.09,South,180,2.5,3.1,86,0.01,,---,0.61,VWS V14.01,2013-04-05 15:47:00,
2013-04-05 08:51:00,52.4,48.0,30.09,South,180,3.1,3.6,85,0.01,,---,0.61,VWS V14.01,2013-04-05 15:51:00,
2013-04-05 08:56:00,52.4,48.0,30.09,South,180,4.5,4.5,85,0.01,,---,0.61,VWS V14.01,2013-04-05 15:56:00,
2013-04-05 09:01:00,52.6,47.9,30.09,South,180,5.6,5.6,84,0.01,,---,0.61,VWS V14.01,2013-04-05 16:01:00,
2013-04-05 09:07:00,52.7,48.0,30.09,South,180,5.4,6.3,84,0.01,,---,0.61,VWS V14.01,2013-04-05 16:07:00,
2013-04-05 09:12:00,53.1,48.1,30.09,SW,225,2.5,3.1,83,0.01,,---,0.61,VWS V14.01,2013-04-05 16:12:00,
2013-04-05 09:17:00,53.5,48.8,30.10,South,180,1.8,1.8,84,0.01,,---,0.61,VWS V14.01,2013-04-05 16:17:00,
2013-04-05 09:22:00,53.8,49.1,30.10,South,180,1.6,1.6,84,0.00,,---,0.61,VWS V14.01,2013-04-05 16:22:00,
2013-04-05 09:27:00,54.0,49.3,30.10,South,180,0.0,0.0,84,0.00,,---,0.61,VWS V14.01,2013-04-05 16:27:00,
2013-04-05 09:32:00,54.2,49.8,30.10,South,180,0.4,0.4,85,0.00,,---,0.61,VWS V14.01,2013-04-05 16:32:00,
2013-04-05 09:37:00,54.4,49.7,30.10,South,180,3.1,3.1,84,0.00,,---,0.61,VWS V14.01,2013-04-05 16:37:00,
2013-04-05 09:42:00,54.4,49.3,30.10,South,180,1.3,1.3,83,0.00,,---,0.61,VWS V14.01,2013-04-05 16:42:00,
2013-04-05 09:47:00,54.4,48.7,30.11,South,180,3.6,3.6,81,0.00,,---,0.61,VWS V14.01,2013-04-05 16:47:00,
2013-04-05 09:52:00,54.4,49.0,30.11,SE,135,2.5,2.5,82,0.00,,---,0.61,VWS V14.01,2013-04-05 16:52:00,
2013-04-05 09:57:00,54.7,49.0,30.10,South,180,1.1,1.1,81,0.00,,---,0.61,VWS V14.01,2013-04-05 16:57:00,
2013-04-05 10:02:00,55.3,49.2,30.11,South,180,1.8,2.0,80,0.00,,---,0.61,VWS V14.01,2013-04-05 17:02:00,
2013-04-05 10:07:00,55.1,49.0,30.11,South,180,5.6,5.6,80,0.00,,---,0.61,VWS V14.01,2013-04-05 17:07:00,
2013-04-05 10:12:00,54.7,48.3,30.12,SW,225,7.4,7.4,79,0.00,,---,0.61,VWS V14.01,2013-04-05 17:12:00,
2013-04-05 10:17:00,54.7,48.3,30.11,South,180,3.4,4.3,79,0.00,,---,0.61,VWS V14.01,2013-04-05 17:17:00,
2013-04-05 10:22:00,54.9,48.9,30.11,South,180,2.7,2.7,80,0.00,,---,0.61,VWS V14.01,2013-04-05 17:22:00,
2013-04-05 10:27:00,55.1,48.4,30.12,South,180,5.6,5.6,78,0.00,,---,0.61,VWS V14.01,2013-04-05 17:27:00,
2013-04-05 10:32:00,55.4,48.7,30.12,South,180,0.4,0.4,78,0.00,,---,0.61,VWS V14.01,2013-04-05 17:32:00,
2013-04-05 10:37:00,55.4,48.7,30.12,SW,225,1.3,8.1,78,0.00,,---,0.61,VWS V14.01,2013-04-05 17:37:00,
2013-04-05 10:42:00,55.3,48.2,30.12,South,180,1.3,4.0,77,0.00,,---,0.61,VWS V14.01,2013-04-05 17:42:00,
2013-04-05 10:47:00,55.1,48.4,30.12,WSW,248,3.1,3.1,78,0.00,,---,0.61,VWS V14.01,2013-04-05 17:47:00,
2013-04-05 10:52:00,55.3,48.6,30.12,South,180,1.3,1.3,78,0.00,,---,0.61,VWS V14.01,2013-04-05 17:52:00,
2013-04-05 10:57:00,55.4,47.6,30.12,South,180,5.6,5.6,75,0.00,,---,0.61,VWS V14.01,2013-04-05 17:57:00,
2013-04-05 11:02:00,55.4,48.3,30.13,South,180,2.2,2.2,77,0.00,,---,0.61,VWS V14.01,2013-04-05 18:02:00,
2013-04-05 11:07:00,55.8,48.0,30.13,South,180,3.4,3.4,75,0.00,,---,0.61,VWS V14.01,2013-04-05 18:07:00,
2013-04-05 11:12:00,55.8,48.7,30.13,South,180,4.7,7.8,77,0.00,,---,0.61,VWS V14.01,2013-04-05 18:12:00,
2013-04-05 11:17:00,55.8,48.0,30.14,South,180,8.5,8.5,75,0.00,,---,0.61,VWS V14.01,2013-04-05 18:17:00,
2013-04-05 11:22:00,56.0,48.5,30.13,South,180,8.1,8.1,76,0.00,,---,0.61,VWS V14.01,2013-04-05 18:22:00,
2013-04-05 11:27:00,56.0,47.8,30.13,South,180,2.0,2.0,74,0.00,,---,0.61,VWS V14.01,2013-04-05 18:27:00,
2013-04-05 11:32:00,56.5,48.7,30.13,South,180,6.3,6.3,75,0.00,,---,0.61,VWS V14.01,2013-04-05 18:32:00,
2013-04-05 11:37:00,56.5,48.7,30.13,South,180,3.4,4.0,75,0.00,,---,0.61,VWS V14.01,2013-04-05 18:37:00,
2013-04-05 11:42:00,56.5,48.7,30.13,South,180,4.7,4.7,75,0.00,,---,0.61,VWS V14.01,2013-04-05 18:42:00,
2013-04-05 11:47:00,57.2,49.4,30.13,South,180,2.2,2.7,75,0.00,,---,0.61,VWS V14.01,2013-04-05 18:47:00,
2013-04-05 11:52:00,57.2,48.3,30.13,South,180,1.1,1.1,72,0.00,,---,0.61,VWS V14.01,2013-04-05 18:52:00,
2013-04-05 11:57:00,57.4,48.5,30.13,South,180,2.5,2.5,72,0.00,,---,0.61,VWS V14.01,2013-04-05 18:57:00,
2013-04-05 12:02:00,57.4,48.8,30.13,South,180,2.5,2.5,73,0.00,,---,0.61,VWS V14.01,2013-04-05 19:02:00,
2013-04-05 12:07:00,57.6,49.4,30.12,South,180,4.9,4.9,74,0.00,,---,0.61,VWS V14.01,2013-04-05 19:07:00,
2013-04-05 12:12:00,58.3,50.1,30.12,South,180,0.9,0.9,74,0.00,,---,0.61,VWS V14.01,2013-04-05 19:12:00,
2013-04-05 12:17:00,58.7,50.5,30.12,South,180,2.5,2.5,74,0.00,,---,0.61,VWS V14.01,2013-04-05 19:17:00,
2013-04-05 12:22:00,59.0,49.2,30.13,South,180,4.5,4.5,70,0.00,,---,0.61,VWS V14.01,2013-04-05 19:22:00,
2013-04-05 12:27:00,58.7,49.3,30.12,South,180,0.7,0.7,71,0.00,,---,0.61,VWS V14.01,2013-04-05 19:27:00,
2013-04-05 12:32:00,59.4,50.0,30.12,South,180,2.5,2.5,71,0.00,,---,0.61,VWS V14.01,2013-04-05 19:32:00,
2013-04-05 12:37:00,59.8,49.6,30.12,South,180,2.9,3.8,69,0.00,,---,0.61,VWS V14.01,2013-04-05 19:37:00,
2013-04-05 12:42:00,60.1,49.1,30.12,South,180,2.9,2.9,67,0.00,,---,0.61,VWS V14.01,2013-04-05 19:42:00,
2013-04-05 12:47:00,59.4,49.2,30.12,South,180,5.8,5.8,69,0.00,,---,0.61,VWS V14.01,2013-04-05 19:47:00,
2013-04-05 12:52:00,58.5,48.8,30.12,South,180,4.7,4.7,70,0.00,,---,0.61,VWS V14.01,2013-04-05 19:52:00,
2013-04-05 12:57:00,58.1,49.9,30.12,South,180,2.5,2.5,74,0.01,,---,0.62,VWS V14.01,2013-04-05 19:57:00,
2013-04-05 13:03:00,57.4,49.5,30.12,South,180,1.3,1.3,75,0.01,,---,0.62,VWS V14.01,2013-04-05 20:03:00,
2013-04-05 13:08:00,57.2,49.7,30.12,South,180,0.2,0.2,76,0.02,,---,0.63,VWS V14.01,2013-04-05 20:08:00,
2013-04-05 13:13:00,57.2,49.7,30.12,NE,45,4.0,4.0,76,0.02,,---,0.63,VWS V14.01,2013-04-05 20:13:00,
2013-04-05 13:18:00,57.1,50.3,30.13,South,180,2.7,2.7,78,0.03,,---,0.64,VWS V14.01,2013-04-05 20:18:00,
2013-04-05 13:23:00,56.7,50.3,30.13,South,180,0.0,0.0,79,0.05,,---,0.66,VWS V14.01,2013-04-05 20:23:00,
2013-04-05 13:28:00,56.5,50.4,30.13,South,180,1.1,1.1,80,0.08,,---,0.69,VWS V14.01,2013-04-05 20:28:00,
2013-04-05 13:33:00,56.2,50.5,30.13,South,180,0.4,0.4,81,0.10,,---,0.71,VWS V14.01,2013-04-05 20:33:00,
2013-04-05 13:38:00,55.8,50.1,30.13,South,180,0.9,0.9,81,0.12,,---,0.73,VWS V14.01,2013-04-05 20:38:00,
2013-04-05 13:43:00,55.8,50.4,30.12,South,180,0.0,1.1,82,0.12,,---,0.73,VWS V14.01,2013-04-05 20:43:00,
2013-04-05 13:48:00,55.8,50.4,30.12,South,180,1.1,1.1,82,0.12,,---,0.73,VWS V14.01,2013-04-05 20:48:00,
2013-04-05 13:53:00,56.2,50.8,30.12,South,180,1.3,1.3,82,0.12,,---,0.73,VWS V14.01,2013-04-05 20:53:00,
2013-04-05 13:58:00,56.3,50.5,30.12,South,180,1.1,1.1,81,0.11,,---,0.73,VWS V14.01,2013-04-05 20:58:00,
2013-04-05 14:03:00,56.5,50.8,30.12,South,180,0.9,0.9,81,0.11,,---,0.73,VWS V14.01,2013-04-05 21:03:00,
2013-04-05 14:08:00,56.9,51.1,30.12,South,180,3.4,3.4,81,0.10,,---,0.73,VWS V14.01,2013-04-05 21:08:00,
2013-04-05 14:13:00,57.6,52.2,30.12,South,180,1.6,1.6,82,0.10,,---,0.73,VWS V14.01,2013-04-05 21:13:00,
2013-04-05 14:18:00,58.1,51.6,30.12,South,180,4.0,4.0,79,0.09,,---,0.73,VWS V14.01,2013-04-05 21:18:00,
2013-04-05 14:23:00,58.5,51.0,30.12,South,180,7.6,7.6,76,0.07,,---,0.73,VWS V14.01,2013-04-05 21:23:00,
2013-04-05 14:28:00,58.0,50.5,30.12,South,180,2.5,2.5,76,0.04,,---,0.73,VWS V14.01,2013-04-05 21:28:00,
2013-04-05 14:33:00,57.4,50.3,30.12,South,180,4.0,4.0,77,0.03,,---,0.74,VWS V14.01,2013-04-05 21:33:00,
2013-04-05 14:38:00,56.5,50.1,30.12,South,180,1.8,1.8,79,0.02,,---,0.75,VWS V14.01,2013-04-05 21:38:00,
2013-04-05 14:43:00,55.6,49.2,30.12,South,180,1.1,1.1,79,0.02,,---,0.75,VWS V14.01,2013-04-05 21:43:00,
2013-04-05 14:48:00,55.1,49.0,30.12,South,180,2.0,2.0,80,0.03,,---,0.76,VWS V14.01,2013-04-05 21:48:00,
2013-04-05 14:53:00,54.9,49.5,30.12,South,180,2.0,2.0,82,0.04,,---,0.77,VWS V14.01,2013-04-05 21:53:00,
2013-04-05 14:58:00,54.7,49.3,30.12,South,180,0.7,0.7,82,0.05,,---,0.78,VWS V14.01,2013-04-05 21:58:00,
2013-04-05 15:03:00,54.7,49.3,30.12,South,180,2.0,2.0,82,0.05,,---,0.78,VWS V14.01,2013-04-05 22:03:00,
2013-04-05 15:08:00,54.5,48.8,30.12,South,180,1.6,4.5,81,0.05,,---,0.78,VWS V14.01,2013-04-05 22:08:00,
2013-04-05 15:13:00,54.4,48.4,30.12,South,180,5.4,5.4,80,0.05,,---,0.78,VWS V14.01,2013-04-05 22:13:00,
2013-04-05 15:18:00,54.4,48.7,30.12,South,180,2.9,2.9,81,0.05,,---,0.78,VWS V14.01,2013-04-05 22:18:00,
2013-04-05 15:23:00,54.4,49.0,30.12,South,180,0.0,0.0,82,0.05,,---,0.78,VWS V14.01,2013-04-05 22:23:00,
2013-04-05 15:28:00,54.4,49.3,30.12,South,180,0.0,0.0,83,0.06,,---,0.79,VWS V14.01,2013-04-05 22:28:00,
2013-04-05 15:33:00,54.4,49.0,30.12,South,180,1.1,1.1,82,0.06,,---,0.79,VWS V14.01,2013-04-05 22:33:00,
2013-04-05 15:38:00,54.4,49.3,30.12,South,180,0.7,0.7,83,0.05,,---,0.79,VWS V14.01,2013-04-05 22:38:00,
2013-04-05 15:43:00,54.4,49.0,30.12,South,180,4.0,4.0,82,0.05,,---,0.80,VWS V14.01,2013-04-05 22:43:00,
2013-04-05 15:48:00,54.0,48.6,30.12,South,180,1.1,1.8,82,0.04,,---,0.80,VWS V14.01,2013-04-05 22:48:00,
2013-04-05 15:54:00,54.2,48.8,30.12,South,180,2.7,2.7,82,0.03,,---,0.80,VWS V14.01,2013-04-05 22:54:00,
2013-04-05 15:59:00,54.2,48.8,30.12,South,180,6.7,6.7,82,0.02,,---,0.80,VWS V14.01,2013-04-05 22:59:00,
2013-04-05 16:04:00,54.2,48.8,30.12,South,180,1.3,1.3,82,0.02,,---,0.80,VWS V14.01,2013-04-05 23:04:00,
2013-04-05 16:09:00,54.0,48.6,30.12,South,180,0.9,0.9,82,0.02,,---,0.80,VWS V14.01,2013-04-05 23:09:00,
2013-04-05 16:14:00,53.8,48.4,30.11,South,180,0.7,0.7,82,0.03,,---,0.81,VWS V14.01,2013-04-05 23:14:00,
2013-04-05 16:19:00,53.6,48.6,30.11,South,180,0.9,0.9,83,0.03,,---,0.81,VWS V14.01,2013-04-05 23:19:00,
2013-04-05 16:24:00,53.6,48.9,30.11,South,180,0.7,0.7,84,0.03,,---,0.81,VWS V14.01,2013-04-05 23:24:00,
2013-04-05 16:29:00,53.6,48.6,30.11,South,180,0.7,0.7,83,0.02,,---,0.81,VWS V14.01,2013-04-05 23:29:00,
2013-04-05 16:34:00,53.5,48.5,30.11,South,180,0.9,0.9,83,0.02,,---,0.81,VWS V14.01,2013-04-05 23:34:00,
2013-04-05 16:39:00,53.3,48.9,30.11,South,180,0.0,0.0,85,0.03,,---,0.82,VWS V14.01,2013-04-05 23:39:00,
2013-04-05 16:44:00,53.3,48.9,30.11,South,180,0.2,0.2,85,0.03,,---,0.83,VWS V14.01,2013-04-05 23:44:00,
2013-04-05 16:49:00,53.1,48.4,30.11,South,180,1.1,1.1,84,0.03,,---,0.83,VWS V14.01,2013-04-05 23:49:00,
2013-04-05 16:54:00,52.9,48.8,30.11,South,180,1.8,1.8,86,0.05,,---,0.85,VWS V14.01,2013-04-05 23:54:00,
2013-04-05 16:59:00,52.6,48.5,30.11,South,180,1.3,1.3,86,0.07,,---,0.87,VWS V14.01,2013-04-05 23:59:00,
2013-04-05 17:04:00,52.4,48.0,30.11,South,180,4.5,4.5,85,0.09,,---,0.89,VWS V14.01,2013-04-06 00:04:00,
2013-04-05 17:09:00,52.2,48.2,30.11,South,180,0.0,0.7,86,0.10,,---,0.91,VWS V14.01,2013-04-06 00:09:00,
2013-04-05 17:14:00,52.0,48.0,30.11,NW,315,0.4,1.1,86,0.10,,---,0.91,VWS V14.01,2013-04-06 00:14:00,
2013-04-05 17:19:00,51.8,48.4,30.11,SSW,202,0.7,0.7,88,0.10,,---,0.91,VWS V14.01,2013-04-06 00:19:00,
2013-04-05 17:24:00,51.7,48.3,30.11,NW,315,0.4,0.9,88,0.11,,---,0.93,VWS V14.01,2013-04-06 00:24:00,
2013-04-05 17:29:00,51.5,48.4,30.10,WSW,248,0.2,0.9,89,0.11,,---,0.93,VWS V14.01,2013-04-06 00:29:00,
2013-04-05 17:34:00,51.5,47.8,30.10,NNE,22,0.7,2.0,87,0.11,,---,0.93,VWS V14.01,2013-04-06 00:34:00,
2013-04-05 17:39:00,51.5,48.1,30.10,WSW,248,0.2,0.2,88,0.11,,---,0.93,VWS V14.01,2013-04-06 00:39:00,
2013-04-05 17:44:00,51.5,48.4,30.10,NNW,338,0.0,0.4,89,0.10,,---,0.93,VWS V14.01,2013-04-06 00:44:00,
2013-04-05 17:49:00,51.5,48.1,30.10,NNE,22,0.9,1.8,88,0.10,,---,0.93,VWS V14.01,2013-04-06 00:49:00,
2013-04-05 17:54:00,51.3,48.5,30.09,North,0,0.0,0.0,90,0.08,,---,0.93,VWS V14.01,2013-04-06 00:54:00,
2013-04-05 17:59:00,51.1,48.0,30.09,North,0,0.4,0.4,89,0.06,,---,0.93,VWS V14.01,2013-04-06 00:59:00,
2013-04-05 18:05:00,51.1,48.3,30.09,North,0,1.1,1.1,90,0.05,,---,0.94,VWS V14.01,2013-04-06 01:05:00,
2013-04-05 18:10:00,50.9,47.8,30.09,South,180,0.2,0.2,89,0.04,,---,0.94,VWS V14.01,2013-04-06 01:10:00,
2013-04-05 18:15:00,50.9,48.1,30.09,South,180,0.0,0.0,90,0.03,,---,0.94,VWS V14.01,2013-04-06 01:15:00,
2013-04-05 18:20:00,50.9,47.8,30.09,South,180,1.1,1.1,89,0.03,,---,0.94,VWS V14.01,2013-04-06 01:20:00,
2013-04-05 18:25:00,50.8,48.0,30.09,South,180,1.3,1.3,90,0.02,,---,0.94,VWS V14.01,2013-04-06 01:25:00,
2013-04-05 18:30:00,50.8,48.0,30.09,South,180,0.0,0.0,90,0.03,,---,0.95,VWS V14.01,2013-04-06 01:30:00,
2013-04-05 18:35:00,50.8,47.7,30.09,NW,315,2.0,2.0,89,0.03,,---,0.95,VWS V14.01,2013-04-06 01:35:00,
2013-04-05 18:40:00,50.8,47.7,30.09,NNE,22,1.6,1.6,89,0.02,,---,0.95,VWS V14.01,2013-04-06 01:40:00,
2013-04-05 18:45:00,50.8,47.7,30.09,South,180,1.6,1.6,89,0.02,,---,0.95,VWS V14.01,2013-04-06 01:45:00,
2013-04-05 18:50:00,50.6,47.8,30.09,South,180,1.1,1.1,90,0.02,,---,0.95,VWS V14.01,2013-04-06 01:50:00,
2013-04-05 18:55:00,50.4,47.6,30.09,South,180,1.6,1.6,90,0.02,,---,0.95,VWS V14.01,2013-04-06 01:55:00,
2013-04-05 19:00:00,50.6,47.5,30.09,WNW,292,0.2,0.2,89,0.02,,---,0.95,VWS V14.01,2013-04-06 02:00:00,
2013-04-05 19:05:00,50.6,47.5,30.09,NW,315,0.0,0.0,89,0.02,,---,0.96,VWS V14.01,2013-04-06 02:05:00,
2013-04-05 19:10:00,50.4,47.3,30.09,North,0,0.0,0.0,89,0.02,,---,0.96,VWS V14.01,2013-04-06 02:10:00,
2013-04-05 19:15:00,50.2,47.4,30.09,NW,315,0.7,0.7,90,0.03,,---,0.98,VWS V14.01,2013-04-06 02:15:00,
2013-04-05 19:20:00,50.2,47.1,30.09,WSW,248,0.7,0.7,89,0.03,,---,0.98,VWS V14.01,2013-04-06 02:20:00,
2013-04-05 19:25:00,50.0,46.9,30.09,South,180,1.8,1.8,89,0.04,,---,0.98,VWS V14.01,2013-04-06 02:25:00,
2013-04-05 19:30:00,50.0,46.6,30.09,South,180,0.4,0.4,88,0.03,,---,0.98,VWS V14.01,2013-04-06 02:30:00,
2013-04-05 19:35:00,50.0,46.6,30.09,South,180,2.5,2.5,88,0.04,,---,1.00,VWS V14.01,2013-04-06 02:35:00,
2013-04-05 19:40:00,50.0,46.0,30.08,South,180,0.7,0.7,86,0.05,,---,1.00,VWS V14.01,2013-04-06 02:40:00,
2013-04-05 19:45:00,49.9,46.2,30.09,South,180,0.4,1.3,87,0.06,,---,1.02,VWS V14.01,2013-04-06 02:45:00,
2013-04-05 19:50:00,49.5,46.1,30.08,South,180,0.0,0.0,88,0.06,,---,1.02,VWS V14.01,2013-04-06 02:50:00,
2013-04-05 19:55:00,49.3,45.9,30.08,South,180,0.4,0.4,88,0.07,,---,1.03,VWS V14.01,2013-04-06 02:55:00,
2013-04-05 20:00:00,49.3,46.2,30.08,South,180,1.1,1.1,89,0.07,,---,1.03,VWS V14.01,2013-04-06 03:00:00,
2013-04-05 20:05:00,49.0,45.9,30.08,South,180,0.0,0.0,89,0.06,,---,1.03,VWS V14.01,2013-04-06 03:05:00,
2013-04-05 20:10:00,48.8,45.7,30.08,South,180,0.9,1.3,89,0.06,,---,1.03,VWS V14.01,2013-04-06 03:10:00,
2013-04-05 20:15:00,48.8,45.7,30.08,South,180,0.2,0.2,89,0.06,,---,1.04,VWS V14.01,2013-04-06 03:15:00,
2013-04-05 20:20:00,48.6,45.5,30.08,South,180,0.0,0.0,89,0.06,,---,1.04,VWS V14.01,2013-04-06 03:20:00,
2013-04-05 20:25:00,48.6,45.5,30.07,South,180,0.0,0.0,89,0.05,,---,1.04,VWS V14.01,2013-04-06 03:25:00,
2013-04-05 20:30:00,48.6,45.5,30.07,South,180,0.0,0.0,89,0.05,,---,1.04,VWS V14.01,2013-04-06 03:30:00,
2013-04-05 20:35:00,48.6,45.5,30.07,South,180,0.0,0.9,89,0.05,,---,1.05,VWS V14.01,2013-04-06 03:35:00,
2013-04-05 20:40:00,48.6,45.8,30.07,South,180,0.2,0.2,90,0.04,,---,1.05,VWS V14.01,2013-04-06 03:40:00,
2013-04-05 20:45:00,48.4,45.6,30.07,South,180,1.1,1.1,90,0.03,,---,1.05,VWS V14.01,2013-04-06 03:45:00,
2013-04-05 20:50:00,48.6,45.8,30.07,South,180,0.0,0.2,90,0.03,,---,1.05,VWS V14.01,2013-04-06 03:50:00,
2013-04-05 20:55:00,48.4,45.6,30.06,South,180,0.2,0.2,90,0.02,,---,1.05,VWS V14.01,2013-04-06 03:55:00,
2013-04-05 21:00:00,48.2,45.4,30.06,South,180,0.0,0.0,90,0.02,,---,1.05,VWS V14.01,2013-04-06 04:00:00,
2013-04-05 21:05:00,48.2,45.4,30.06,South,180,1.1,1.8,90,0.02,,---,1.05,VWS V14.01,2013-04-06 04:05:00,
2013-04-05 21:10:00,48.1,45.6,30.06,South,180,0.9,0.9,91,0.02,,---,1.05,VWS V14.01,2013-04-06 04:10:00,
2013-04-05 21:15:00,48.2,45.4,30.06,South,180,1.1,2.5,90,0.01,,---,1.05,VWS V14.01,2013-04-06 04:15:00,
2013-04-05 21:20:00,48.2,45.4,30.06,South,180,0.0,0.0,90,0.01,,---,1.05,VWS V14.01,2013-04-06 04:20:00,
2013-04-05 21:25:00,48.1,45.3,30.06,South,180,0.4,0.4,90,0.01,,---,1.05,VWS V14.01,2013-04-06 04:25:00,
2013-04-05 21:30:00,47.9,45.4,30.06,South,180,1.8,1.8,91,0.01,,---,1.05,VWS V14.01,2013-04-06 04:30:00,
2013-04-05 21:35:00,47.9,45.4,30.06,South,180,0.4,0.4,91,0.00,,---,1.05,VWS V14.01,2013-04-06 04:35:00,
2013-04-05 21:40:00,47.9,45.4,30.05,South,180,0.7,0.7,91,0.00,,---,1.05,VWS V14.01,2013-04-06 04:40:00,
2013-04-05 21:45:00,47.9,45.4,30.05,South,180,2.9,3.4,91,0.00,,---,1.05,VWS V14.01,2013-04-06 04:45:00,
2013-04-05 21:50:00,47.9,45.4,30.05,South,180,0.4,2.0,91,0.00,,---,1.05,VWS V14.01,2013-04-06 04:50:00,
2013-04-05 21:55:00,47.9,45.4,30.04,South,180,2.5,2.5,91,0.00,,---,1.05,VWS V14.01,2013-04-06 04:55:00,
2013-04-05 22:00:00,48.1,45.6,30.04,South,180,0.0,2.2,91,0.00,,---,1.05,VWS V14.01,2013-04-06 05:00:00,
2013-04-05 22:05:00,48.4,45.9,30.04,South,180,1.8,1.8,91,0.00,,---,1.05,VWS V14.01,2013-04-06 05:05:00,
2013-04-05 22:10:00,48.4,45.9,30.04,South,180,1.1,1.1,91,0.00,,---,1.05,VWS V14.01,2013-04-06 05:10:00,
2013-04-05 22:15:00,48.2,45.7,30.04,South,180,0.4,0.4,91,0.01,,---,1.06,VWS V14.01,2013-04-06 05:15:00,
2013-04-05 22:20:00,48.2,45.1,30.03,South,180,1.6,1.6,89,0.01,,---,1.06,VWS V14.01,2013-04-06 05:20:00,
2013-04-05 22:25:00,48.6,45.2,30.03,NNE,22,2.5,2.7,88,0.01,,---,1.06,VWS V14.01,2013-04-06 05:25:00,
2013-04-05 22:30:00,49.3,45.9,30.02,NNE,22,2.9,2.9,88,0.01,,---,1.06,VWS V14.01,2013-04-06 05:30:00,
2013-04-05 22:35:00,49.3,45.6,30.02,South,180,0.4,1.1,87,0.01,,---,1.06,VWS V14.01,2013-04-06 05:35:00,
2013-04-05 22:40:00,49.3,45.6,30.02,South,180,0.0,0.0,87,0.01,,---,1.06,VWS V14.01,2013-04-06 05:40:00,
2013-04-05 22:45:00,49.5,45.5,30.01,South,180,2.7,2.7,86,0.01,,---,1.06,VWS V14.01,2013-04-06 05:45:00,
2013-04-05 22:50:00,50.0,45.4,30.01,South,180,1.6,1.6,84,0.01,,---,1.06,VWS V14.01,2013-04-06 05:50:00,
2013-04-05 22:55:00,50.4,45.4,30.00,South,180,2.5,2.5,83,0.01,,---,1.06,VWS V14.01,2013-04-06 05:55:00,
2013-04-05 23:00:00,50.2,45.2,30.00,South,180,1.3,2.2,83,0.01,,---,1.06,VWS V14.01,2013-04-06 06:00:00,
2013-04-05 23:05:00,50.2,45.9,30.00,NE,45,2.0,2.0,85,0.02,,---,1.07,VWS V14.01,2013-04-06 06:05:00,
2013-04-05 23:10:00,50.0,46.0,29.99,North,0,2.0,2.0,86,0.03,,---,1.07,VWS V14.01,2013-04-06 06:10:00,
2013-04-05 23:15:00,49.9,45.9,29.98,East,90,0.4,0.4,86,0.03,,---,1.09,VWS V14.01,2013-04-06 06:15:00,
2013-04-05 23:20:00,49.7,45.7,29.97,NNE,22,2.2,2.2,86,0.04,,---,1.10,VWS V14.01,2013-04-06 06:20:00,
2013-04-05 23:25:00,49.5,45.5,29.96,North,0,0.9,0.9,86,0.04,,---,1.10,VWS V14.01,2013-04-06 06:25:00,
2013-04-05 23:30:00,49.3,45.6,29.97,NNW,338,2.5,2.5,87,0.04,,---,1.10,VWS V14.01,2013-04-06 06:30:00,
2013-04-05 23:35:00,49.3,45.6,29.97,NE,45,2.2,2.5,87,0.04,,---,1.10,VWS V14.01,2013-04-06 06:35:00,
2013-04-05 23:40:00,49.3,45.3,29.96,NW,315,0.4,1.8,86,0.04,,---,1.10,VWS V14.01,2013-04-06 06:40:00,
2013-04-05 23:45:00,49.3,45.3,29.96,NE,45,2.7,2.7,86,0.04,,---,1.10,VWS V14.01,2013-04-06 06:45:00,
2013-04-05 23:50:00,49.1,45.4,29.96,South,180,2.0,4.0,87,0.04,,---,1.10,VWS V14.01,2013-04-06 06:50:00,
2013-04-05 23:55:00,49.1,45.1,29.96,South,180,3.4,3.4,86,0.04,,---,1.10,VWS V14.01,2013-04-06 06:55:00,